RH
84 85 93 92 90 83 80 80 78 75 73 71 68 66 67 64 48 27 35 52 30 24 32 66 80 46 47 80 87 91 75 56 49 73 36 35 51 81 82 89 44 41 55
87 92 89 90 80 78 82 79 80 76 76 71 70 70 66 63 51 31 53 64 30 36 70 88 90 48 47 77 84 85 60 43 55 61 41 33 36 42 46 56 67 91 93
92 96 93 88 83 75 76 75 80 77 77 75 72 76 66 63 56 33 62 73 49 57 83 88 89 67 44 64 72 67 49 60 77 88 85 64 47 54 74 90 88 89 85
93 92 86 85 82 70 74 71 76 75 72 74 75 82 67 66 61 33 72 80 63 84 83 75 51 34 38 53 34 46 44 86 88 84 89 82 85 85 73 61 60 52 38
86 98 87 87 87 71 67 70 74 74 68 73 76 82 64 67 64 32 74 83 68 75 78 68 55 26 30 35 34 31 54 84 86 91 98 89 57 47 39 33 34 32 33
88 84 96 94 91 74 69 68 70 68 68 71 77 82 80 66 64 34 77 84 82 50 51 43 46 27 31 36 38 42 52 63 71 80 87 84 56 32 31 34 36 38 38
96 94 88 94 95 88 77 67 64 64 70 70 78 83 82 69 65 37 70 85 85 50 29 26 29 28 30 32 35 40 49 60 78 84 66 52 38 32 36 39 42 43 43
86 92 94 92 93 92 88 82 78 72 70 68 71 84 61 64 65 44 68 80 88 69 32 25 28 32 33 34 32 31 34 46 69 78 74 50 34 35 39 41 43 45 46
84 76 89 94 95 87 88 83 85 86 77 70 71 61 64 64 69 62 68 76 88 80 52 25 30 36 37 36 35 33 32 41 67 75 75 59 38 39 41 43 44 46 47
55 75 84 89 100 95 88 82 80 81 79 80 80 73 74 70 74 68 65 73 85 88 66 27 30 36 38 36 36 36 34 44 72 73 78 66 52 41 42 44 47 49 51
25 41 77 89 89 95 98 90 86 79 79 79 75 77 80 77 83 77 72 75 85 90 78 32 28 35 37 37 38 39 38 44 71 65 75 65 47 42 42 43 45 48 51
18 19 28 69 87 91 98 99 91 86 82 81 76 73 72 73 79 82 78 76 82 90 89 53 26 31 38 37 38 39 42 55 74 75 76 68 49 44 43 43 44 45 48
21 18 16 22 52 81 86 89 97 94 83 81 80 74 70 75 74 83 90 89 86 89 93 79 51 27 34 39 42 42 42 67 78 77 75 67 51 47 45 45 45 44 47
16 16 14 13 18 38 69 84 87 93 98 85 80 83 80 80 88 90 79 90 87 91 95 88 70 46 30 45 76 77 55 61 78 74 74 73 58 47 46 45 45 47 50
26 18 16 13 10 14 22 54 77 87 91 97 81 79 86 83 78 89 85 87 81 88 97 90 74 58 38 37 71 80 74 75 64 70 69 56 49 45 48 48 50 51 53
34 27 24 24 18 11 12 18 44 70 86 88 89 79 80 82 84 86 86 83 87 83 91 97 88 77 63 50 83 75 74 73 71 70 71 64 53 45 42 49 53 54 54
41 40 38 39 39 29 16 12 16 38 66 85 81 84 86 91 91 78 76 85 83 78 85 92 94 87 78 77 76 66 71 66 63 62 67 65 56 49 42 38 44 53 55
50 50 48 43 42 44 30 21 14 18 32 66 88 84 89 91 88 94 85 83 87 81 79 85 85 89 82 76 73 74 73 67 63 62 59 59 54 45 39 40 39 46 54
58 58 59 57 52 47 39 27 23 24 35 27 73 92 90 95 93 86 90 89 82 78 83 85 84 89 90 73 72 74 68 70 68 61 56 62 58 51 50 42 36 42 46
74 71 66 62 58 54 51 42 35 31 37 62 37 84 95 94 92 93 87 87 84 85 86 90 86 88 87 79 75 76 78 74 69 59 51 63 53 60 60 58 44 40 42
69 75 78 70 60 58 55 53 52 40 40 48 48 42 90 95 95 85 88 86 84 77 84 82 82 90 87 88 94 84 85 84 70 64 50 55 52 59 66 60 51 45 42
83 82 80 76 68 65 60 55 53 49 45 62 62 47 81 99 96 83 84 84 83 84 80 83 78 78 90 88 94 96 97 88 77 77 69 62 54 54 55 50 47 48 47
93 81 81 88 76 69 66 62 59 55 49 61 75 63 58 99 99 98 82 85 84 81 84 82 85 87 81 91 91 98 98 93 75 64 57 55 52 51 53 51 53 49 50
98 99 82 87 90 76 70 67 62 61 52 57 69 62 55 82 99 99 96 94 82 86 81 80 85 84 80 76 83 85 80 82 79 71 64 61 58 57 61 64 69 69 66
99 97 88 84 96 93 74 70 66 65 57 69 76 67 62 67 83 94 95 97 94 84 78 72 77 86 81 83 93 98 96 83 81 89 93 76 72 70 66 68 63 75 74
99 96 92 89 87 95 84 74 71 64 65 71 81 76 79 69 76 91 95 93 98 95 76 72 79 79 76 85 84 92 99 99 96 89 90 84 83 77 73 68 71 69 65
Wind_Speed
9 7 3 8 12 13 12 11 10 10 8 6 6 6 5 4 3 4 6 6 5 8 11 12 12 9 13 12 11 12 10 11 10 12 11 12 13 13 13 11 8 10 11
8 9 4 10 12 14 12 12 11 9 8 6 5 6 5 3 2 4 5 7 9 12 12 12 9 7 10 11 8 10 10 12 12 11 12 12 12 10 9 8 9 12 11
8 6 6 11 11 14 13 12 11 10 8 6 5 5 4 2 2 2 5 7 9 10 10 9 6 4 7 9 7 9 11 13 14 12 11 10 13 12 11 11 12 10 7
5 3 4 11 11 14 14 12 11 10 9 8 7 6 4 2 3 4 4 4 7 8 9 6 4 5 8 7 7 11 14 17 16 13 12 7 11 11 8 6 5 3 5
4 4 3 7 11 13 14 13 12 11 9 9 8 7 4 4 4 7 7 6 7 7 8 5 4 6 8 8 9 13 16 17 15 11 11 3 3 4 4 4 4 4 6
5 4 7 8 9 13 14 14 12 11 9 10 9 7 5 5 5 8 9 9 6 6 7 5 6 6 8 9 9 12 14 13 11 10 9 7 3 4 4 4 5 5 6
2 3 6 9 10 13 14 15 13 11 11 10 10 8 8 6 7 9 11 10 8 5 6 7 8 8 8 8 8 9 11 10 9 5 7 5 3 4 4 4 4 5 5
2 5 6 7 8 13 14 14 13 13 12 12 11 10 8 8 8 11 11 10 11 6 6 8 9 9 8 7 6 7 8 8 9 5 6 2 3 3 3 3 3 4 4
2 4 8 5 6 12 14 15 15 13 13 13 14 12 10 9 10 12 11 11 12 9 7 9 10 9 8 7 6 6 7 9 9 4 2 3 3 3 2 1 2 2 3
4 6 7 11 4 8 14 16 17 17 15 15 15 13 12 11 12 13 12 12 13 11 8 10 11 10 9 8 7 7 7 8 8 5 8 5 4 4 3 2 1 0 1
12 9 9 10 12 11 10 13 16 18 18 17 17 17 15 14 13 15 15 15 15 15 11 11 13 12 10 9 8 8 8 9 4 2 6 6 6 6 5 4 3 2 2
18 16 14 12 13 16 13 15 16 18 21 21 21 19 18 16 15 12 14 17 17 17 14 14 15 15 13 11 10 9 8 8 7 7 10 10 8 7 7 6 5 5 4
20 22 20 18 17 17 21 19 15 16 19 23 22 21 19 17 13 13 15 16 19 21 20 18 17 18 17 14 11 11 10 8 7 10 11 10 9 9 9 8 8 7 7
22 24 25 25 23 21 20 24 26 20 19 18 22 22 19 15 16 19 22 19 20 24 24 21 20 19 19 16 11 12 11 11 15 10 12 11 10 10 10 10 9 9 8
23 22 23 25 28 27 25 24 25 27 21 22 22 21 23 22 20 20 23 21 21 23 25 23 20 21 22 21 20 20 15 16 14 14 16 14 11 11 11 11 10 10 9
26 24 22 23 25 28 30 29 28 28 32 24 21 24 27 28 28 27 23 22 19 20 23 21 18 18 19 20 20 23 19 19 15 12 15 17 14 12 13 13 12 12 11
26 28 23 25 26 28 29 32 31 32 29 34 32 25 28 31 31 29 28 28 24 23 22 23 23 19 20 21 26 21 20 20 20 19 20 21 18 16 14 15 15 14 14
24 27 30 30 29 28 30 28 34 34 35 32 37 36 30 31 32 28 27 30 23 24 25 24 26 24 23 23 20 23 25 21 21 22 22 20 20 19 18 16 17 18 18
27 28 28 30 30 30 32 30 29 34 34 36 35 39 39 37 36 37 33 31 33 31 28 27 28 28 26 28 30 28 24 23 25 24 24 23 23 23 23 20 18 19 21
19 24 30 30 32 28 30 28 28 30 34 34 35 38 38 39 38 38 40 37 34 33 32 31 30 31 31 33 30 27 27 28 26 28 26 25 25 26 26 25 22 21 21
29 24 25 31 31 29 28 28 28 29 30 36 37 34 38 38 38 37 38 39 39 35 34 31 28 30 30 29 27 29 30 30 31 34 33 32 30 29 28 28 28 26 24
34 28 25 27 28 28 29 29 30 26 28 31 34 36 36 37 38 38 37 37 37 38 36 33 31 29 30 31 30 28 24 28 33 34 36 37 37 36 36 35 34 32 28
37 33 26 22 27 27 28 28 28 26 27 29 33 34 35 38 36 36 36 37 36 36 38 37 35 32 30 33 30 27 11 15 18 21 24 24 26 32 36 38 36 34 33
38 32 28 26 19 25 25 28 29 30 31 31 31 32 34 34 39 34 32 35 37 36 37 33 32 32 26 33 31 31 36 23 6 6 13 20 23 27 28 28 32 33 34
27 22 20 25 18 20 23 24 28 30 28 25 29 31 31 32 36 42 34 34 34 36 34 32 33 32 32 33 32 31 31 31 31 33 27 32 21 26 28 28 32 31 32
23 16 17 17 20 18 20 24 25 26 24 24 26 26 25 31 32 35 38 35 33 34 36 36 35 33 29 31 29 31 35 32 32 34 36 38 38 38 31 31 30 30 30
Wind_Direction
1 329 248 187 178 173 175 175 175 167 157 157 147 133 117 96 82 94 83 83 90 120 109 110 104 113 127 114 116 131 109 101 104 86 92 108 114 107 94 91 72 75 75
13 304 253 191 185 181 179 180 180 180 176 174 166 148 130 103 93 107 98 93 92 111 117 115 127 109 128 133 134 125 102 99 103 96 90 104 116 109 99 91 85 91 85
20 278 205 196 187 189 188 185 188 190 194 193 181 173 142 123 126 125 109 100 102 116 119 129 151 151 149 156 145 134 110 106 98 83 80 103 110 111 104 101 98 96 67
16 21 204 195 186 193 195 193 192 195 199 197 188 189 170 170 164 152 145 122 117 128 127 145 128 132 148 145 118 125 121 108 91 77 62 77 114 116 105 92 82 58 36
76 131 206 207 197 193 203 201 198 197 203 199 201 205 201 191 194 173 174 160 138 146 158 153 140 134 143 139 123 126 129 116 101 84 118 134 119 120 103 81 73 55 46
127 175 206 221 219 203 201 206 206 205 208 209 209 211 217 201 205 191 181 189 167 169 182 178 171 150 148 144 136 133 139 135 124 151 164 207 91 117 106 86 74 61 49
170 191 223 221 222 222 207 206 207 212 216 217 216 218 218 220 207 197 191 197 193 171 182 174 167 165 160 156 152 149 150 143 125 131 159 192 157 129 111 96 80 64 52
268 212 225 241 242 225 221 214 211 215 219 224 226 218 227 224 213 197 201 206 198 200 195 184 177 176 173 169 161 161 161 148 124 149 220 201 162 148 132 109 82 64 53
293 242 222 228 261 229 229 227 222 223 222 229 229 227 224 224 219 210 210 211 205 210 208 196 189 191 187 186 177 169 165 161 132 180 256 262 199 181 160 133 90 68 55
298 255 225 219 197 248 238 235 234 230 226 226 229 228 227 226 222 219 215 214 214 215 221 208 202 200 197 192 186 179 172 159 162 199 195 243 246 229 217 220 206 123 34
292 282 263 228 223 210 239 254 238 233 231 229 231 230 231 231 228 223 217 216 214 217 223 216 211 210 209 207 202 193 182 169 161 207 234 258 252 245 243 243 245 254 274
285 279 270 259 230 219 213 226 249 243 234 231 232 232 234 234 232 234 239 227 217 219 223 222 218 216 215 216 217 213 197 184 153 233 238 257 252 254 257 256 256 258 264
282 280 269 258 256 238 229 223 232 241 248 236 234 234 233 234 217 238 240 235 226 221 223 223 222 220 218 221 217 224 214 195 210 228 248 257 256 257 262 257 258 261 264
281 274 273 267 256 254 248 237 228 227 238 248 240 228 233 227 214 226 244 239 241 226 225 227 230 227 221 213 218 248 217 210 213 217 253 260 261 256 259 261 259 260 261
288 284 280 273 263 255 251 250 243 227 220 233 249 242 221 222 215 226 232 240 242 234 227 230 234 234 227 215 203 221 213 237 231 214 241 255 257 255 257 260 263 260 255
294 289 288 281 275 264 254 246 248 243 222 217 233 236 225 225 217 220 231 239 238 241 227 226 237 242 236 220 221 225 222 222 237 237 247 257 258 258 256 256 258 256 252
283 285 270 270 274 274 263 252 242 247 242 224 219 229 225 221 225 221 223 232 237 243 234 214 226 238 233 229 231 230 228 230 229 231 235 250 257 258 257 257 254 254 253
291 284 283 273 269 266 268 258 248 239 244 236 227 224 225 229 224 222 222 226 230 237 237 230 222 225 229 228 234 226 232 234 236 234 242 245 253 258 261 253 253 251 251
295 284 275 276 272 265 265 264 255 243 242 241 233 231 224 224 227 219 220 220 226 230 228 229 225 224 220 221 224 233 240 234 238 244 241 240 248 257 262 263 260 254 253
295 294 289 271 268 259 265 260 256 249 237 244 239 230 232 231 232 231 223 225 227 227 232 226 229 230 229 226 236 232 232 234 235 244 248 243 251 251 257 262 265 262 258
278 279 289 286 264 252 253 247 249 245 245 241 243 237 230 231 232 232 229 227 228 229 228 230 231 235 232 226 231 237 243 248 250 250 252 249 250 249 252 258 263 263 261
295 282 271 280 275 259 242 246 247 248 241 242 247 241 230 231 235 238 230 228 227 227 228 232 232 234 237 238 230 238 243 258 260 256 251 253 257 256 255 258 260 263 259
306 289 268 274 273 260 245 243 245 239 236 241 245 251 242 231 234 240 237 231 230 230 228 230 236 235 238 244 239 235 224 241 270 274 266 264 263 261 263 265 262 261 262
313 293 268 259 259 259 252 241 240 242 234 238 241 251 247 237 228 232 236 237 232 234 232 230 232 235 230 239 241 246 247 246 256 274 259 265 266 268 269 267 265 265 255
326 307 277 254 253 255 240 246 239 242 243 244 244 251 253 244 235 233 231 236 234 231 227 229 236 237 240 243 247 249 256 255 253 259 265 261 264 258 260 263 259 255 254
329 312 285 259 248 253 250 235 242 244 241 238 242 244 250 244 240 239 232 234 234 236 230 230 234 242 242 246 251 252 249 252 258 261 262 265 265 256 255 265 254 256 261